[[{"header":{"parameterUnit":"m.s-1","parameterCategory":1,"la1":30.2991,"la2":30.254,"lo1":-89.0895,"lo2":-89.0444,"dy":0.0017,"dx":0.0017,"nx":28,"ny":28,"refTime":"2025-07-05T09:00:00:Z","depth":0,"parameterNumber":2,"parameterNumberName":"U-component_of_WINDS"},"data":[0,0,0,0,0,0,0,0,0,0,0,0,0,0,0,0,0,0,0,0,0,0,0,0,0,0,0,0,0,0,0,0,0,0,0,0,0,0,0,0,0,0,0,0,0,0,0,0,0,0,0,0,0,0,0,0,0,0,-1.6769,-1.6769,0,-1.6829,-1.683,-1.6831,-1.6867,-1.6867,-1.6867,-1.6867,-1.693,-1.6931,-1.6933,0,0,0,0,0,0,0,0,0,0,0,0,0,-1.6686,-1.6687,-1.6769,-1.6769,-1.677,-1.6829,-1.683,-1.6831,-1.6867,-1.6867,-1.6867,-1.6867,-1.6929,-1.6931,-1.6933,0,0,0,0,0,0,0,0,0,0,0,0,0,-1.6732,-1.6688,-1.6769,-1.6795,-1.6798,-1.6829,-1.683,-1.6831,-1.6867,-1.6867,-1.6867,-1.6867,-1.6929,-1.6931,-1.6933,-1.6942,0,0,-1.694,-1.6941,0,0,0,0,0,0,0,0,-1.6729,-1.6735,-1.6791,-1.6793,-1.6797,-1.6841,-1.6824,-1.6868,-1.6867,-1.6841,-1.6867,-1.6867,-1.69,-1.6905,-1.6915,-1.6945,-1.6948,-1.694,-1.6941,-1.6942,-1.6943,0,0,0,0,0,0,0,-1.6726,-1.6732,-1.6793,-1.6791,-1.6795,-1.6805,-1.6811,-1.6832,-1.6868,-1.6843,-1.6846,-1.6852,-1.6902,-1.6913,-1.6917,-1.6949,-1.694,-1.6942,-1.6943,-1.6944,-1.6991,-1.6991,0,0,0,0,0,0,-1.6718,-1.6729,-1.6791,-1.6794,-1.6763,-1.6806,-1.6814,-1.6826,-1.6868,-1.6875,-1.6852,-1.6854,-1.6909,-1.6914,-1.6919,-1.6934,-1.6942,-1.6945,-1.6946,-1.6991,-1.6991,-1.6991,0,0,0,0,0,0,-1.6716,-1.6723,-1.6788,-1.6763,-1.6772,-1.6807,-1.6821,-1.6827,-1.6839,-1.6875,-1.6882,-1.6857,-1.6909,-1.6916,-1.6937,-1.6936,-1.6946,-1.6948,-1.6991,-1.6991,-1.6991,-1.6962,0,0,0,0,0,0,-1.6714,-1.6722,-1.6726,-1.6763,-1.6773,-1.6804,-1.6821,-1.6828,-1.6843,-1.6845,-1.6881,-1.6888,-1.691,-1.6933,-1.6939,-1.694,-1.6949,-1.6991,-1.6991,-1.6991,-1.6963,-1.6961,-1.6959,0,0,0,0,0,-1.6711,-1.6715,-1.6726,-1.6733,-1.6778,-1.6804,-1.681,-1.6835,-1.6842,-1.6846,-1.687,-1.6886,-1.6936,-1.6935,-1.6942,-1.6943,-1.6991,-1.6991,-1.6991,-1.6964,-1.6961,-1.6959,0,0,0,0,0,0,-1.6677,-1.672,-1.6733,-1.6749,-1.6772,-1.681,-1.6815,-1.6831,-1.6853,-1.6855,-1.6887,-1.6894,-1.6912,-1.693,-1.6928,-1.6955,-1.6965,-1.6966,-1.6943,-1.6941,-1.6938,-1.6934,-1.6951,0,0,0,0,0,-1.6672,-1.6689,-1.6726,-1.6736,-1.6748,-1.6779,-1.6792,-1.681,-1.6835,-1.6845,-1.687,-1.6895,-1.6916,-1.6929,-1.6951,-1.6966,-1.6975,-1.6971,-1.6969,-1.6967,-1.6967,-1.6978,-1.6977,-1.699,-1.699,-1.699,0,0,-1.666,-1.6686,-1.6695,-1.673,-1.6751,-1.6768,-1.6787,-1.6805,-1.6819,-1.6848,-1.6869,-1.6888,-1.6918,-1.6936,-1.6945,-1.6951,-1.6966,-1.6966,-1.6965,-1.6966,-1.6978,-1.6977,-1.6976,-1.6989,-1.6989,-1.6989,0,0,-1.6649,-1.6669,-1.6681,-1.6702,-1.6732,-1.6754,-1.6757,-1.6792,-1.6806,-1.6828,-1.6851,-1.6868,-1.6903,-1.6924,-1.6939,-1.6937,-1.6953,-1.6943,-1.6932,-1.6942,-1.6941,-1.6941,-1.6941,-1.6941,-1.6943,-1.6943,-1.6943,0,-1.6631,-1.6658,-1.6685,-1.6702,-1.6718,-1.6746,-1.6759,-1.6777,-1.6813,-1.6823,-1.683,-1.6876,-1.6898,-1.6922,-1.6921,-1.6932,-1.6938,-1.6939,-1.6939,-1.6939,-1.6939,-1.6939,-1.6939,-1.6942,-1.6942,-1.6942,-1.6942,0,-1.6635,-1.6653,-1.6659,-1.6694,-1.671,-1.6725,-1.6755,-1.6769,-1.6786,-1.6807,-1.6829,-1.6857,-1.6885,-1.6892,-1.6908,-1.6919,-1.6922,-1.6933,-1.6944,-1.6936,-1.6937,-1.6937,-1.694,-1.694,-1.6941,-1.6941,0,0,-1.6603,-1.6654,-1.6655,-1.6672,-1.6709,-1.6724,-1.674,-1.6768,-1.6779,-1.6804,-1.6819,-1.6849,-1.686,-1.6878,-1.6897,-1.6906,-1.6904,-1.6917,-1.6918,-1.6914,-1.6919,-1.691,-1.691,-1.6915,-1.6916,-1.6916,-1.6917,0,-1.6597,-1.6628,-1.6654,-1.6675,-1.6693,-1.6721,-1.6736,-1.676,-1.6781,-1.68,-1.6823,-1.6844,-1.6857,-1.6867,-1.6878,-1.6902,-1.6906,-1.6902,-1.6931,-1.6931,-1.6923,-1.691,-1.6901,-1.69,-1.6917,-1.6917,-1.6917,0,-1.6594,-1.6618,-1.6641,-1.6677,-1.6686,-1.6698,-1.6727,-1.6744,-1.6773,-1.6788,-1.6808,-1.6828,-1.6848,-1.6857,-1.6886,-1.6883,-1.6896,-1.691,-1.6911,-1.6915,-1.6924,-1.6914,-1.6901,-1.6901,-1.6918,-1.6918,-1.6918,0,-1.6569,-1.6607,-1.6626,-1.664,-1.6682,-1.6691,-1.6709,-1.6738,-1.6753,-1.6778,-1.6789,-1.6816,-1.6831,-1.6851,-1.6879,-1.6883,-1.6905,-1.6916,-1.6918,-1.6918,-1.6922,-1.6921,-1.691,-1.6929,-1.6929,-1.6929,-1.6929,0,-1.6561,-1.6574,-1.6616,-1.6628,-1.6644,-1.6674,-1.669,-1.671,-1.6737,-1.6753,-1.6779,-1.6795,-1.683,-1.685,-1.6872,-1.6893,-1.6899,-1.6912,-1.6918,-1.691,-1.6909,-1.6919,-1.692,-1.6929,-1.6929,-1.6929,-1.6929,0,-1.6535,-1.6564,-1.6587,-1.6626,-1.6636,-1.6646,-1.668,-1.6693,-1.6715,-1.6736,-1.6743,-1.6779,-1.6804,-1.6834,-1.6868,-1.6883,-1.6902,-1.6911,-1.6892,-1.6896,-1.6897,-1.6896,-1.6893,-1.6894,-1.6912,-1.6911,-1.6911,0,-1.6528,-1.6539,-1.6579,-1.6592,-1.661,-1.6631,-1.6647,-1.6678,-1.6694,-1.6729,-1.6738,-1.6765,-1.6788,-1.6827,-1.6856,-1.6884,-1.6893,-1.689,-1.6897,-1.689,-1.6894,-1.6893,-1.6895,-1.6888,-1.6888,-1.6887,-1.6887,0,-1.6512,-1.6526,-1.6548,-1.6575,-1.6594,-1.6617,-1.6641,-1.6651,-1.6687,-1.6704,-1.673,-1.6748,-1.6784,-1.6811,-1.6843,-1.6862,-1.6881,-1.6885,-1.6887,-1.6879,-1.6868,-1.6875,-1.6888,-1.6885,-1.6885,-1.6885,-1.6885,-1.6885,-1.6496,-1.6507,-1.6538,-1.6562,-1.6584,-1.6606,-1.6621,-1.6645,-1.6668,-1.6699,-1.6717,-1.6743,-1.6773,-1.6817,-1.6836,-1.6858,-1.6864,-1.6867,-1.6868,-1.6868,-1.6866,-1.6865,-1.6863,-1.6863,-1.6864,-1.6864,-1.6864,0,-1.6482,-1.6503,-1.6525,-1.6559,-1.6578,-1.6594,-1.6622,-1.6638,-1.666,-1.6687,-1.671,-1.674,-1.6767,-1.6799,-1.6828,-1.6839,-1.6849,-1.6846,-1.6846,-1.685,-1.6858,-1.6854,-1.6838,-1.6838,-1.6838,-1.6838,-1.6838,-1.6838,-1.6477,-1.6497,-1.6515,-1.6548,-1.6569,-1.6595,-1.661,-1.6631,-1.6653,-1.6686,-1.6708,-1.6729,-1.6758,-1.679,-1.6816,-1.6825,-1.6834,-1.6829,-1.684,-1.6847,-1.6849,-1.6852,-1.6848,-1.6831,-1.6831,-1.6831,-1.6831,-1.6831]},{"header":{"parameterUnit":"m.s-1","parameterCategory":1,"la1":30.2991,"la2":30.254,"lo1":-89.0895,"lo2":-89.0444,"dy":0.0017,"dx":0.0017,"nx":28,"ny":28,"refTime":"2025-07-05T09:00:00:Z","depth":0,"parameterNumber":3,"parameterNumberName":"V-component_of_WINDS"},"data":[0,0,0,0,0,0,0,0,0,0,0,0,0,0,0,0,0,0,0,0,0,0,0,0,0,0,0,0,0,0,0,0,0,0,0,0,0,0,0,0,0,0,0,0,0,0,0,0,0,0,0,0,0,0,0,0,0,0,-3.5991,-3.5991,0,-3.5975,-3.5975,-3.5975,-3.5931,-3.593,-3.5929,-3.5928,-3.5908,-3.5909,-3.5909,0,0,0,0,0,0,0,0,0,0,0,0,0,-3.5982,-3.5982,-3.5991,-3.5991,-3.5991,-3.5975,-3.5975,-3.5975,-3.5931,-3.593,-3.5928,-3.5927,-3.5908,-3.5908,-3.5909,0,0,0,0,0,0,0,0,0,0,0,0,0,-3.5978,-3.5982,-3.5991,-3.5967,-3.5965,-3.5975,-3.5975,-3.5975,-3.5931,-3.593,-3.5928,-3.5927,-3.5908,-3.5908,-3.5909,-3.5941,0,0,-3.5911,-3.5911,0,0,0,0,0,0,0,0,-3.5978,-3.5978,-3.5971,-3.5969,-3.5966,-3.5953,-3.5964,-3.5963,-3.5931,-3.5944,-3.5928,-3.5926,-3.5924,-3.5923,-3.5923,-3.594,-3.5939,-3.5911,-3.5911,-3.5911,-3.5911,0,0,0,0,0,0,0,-3.5978,-3.5979,-3.5985,-3.5971,-3.5968,-3.5956,-3.5954,-3.5964,-3.5942,-3.5942,-3.5939,-3.5938,-3.5923,-3.5923,-3.5922,-3.5938,-3.5911,-3.5911,-3.5911,-3.5912,-3.5982,-3.5984,0,0,0,0,0,0,-3.5982,-3.5979,-3.5985,-3.5984,-3.5969,-3.5958,-3.5955,-3.5959,-3.5942,-3.5938,-3.5939,-3.5936,-3.5923,-3.5922,-3.5922,-3.5959,-3.5911,-3.5912,-3.5912,-3.5981,-3.5983,-3.5984,0,0,0,0,0,0,-3.5982,-3.5983,-3.5986,-3.5981,-3.598,-3.5959,-3.5964,-3.5959,-3.596,-3.5939,-3.5935,-3.5944,-3.5922,-3.5921,-3.5937,-3.5958,-3.5912,-3.5912,-3.5979,-3.5982,-3.5984,-3.6034,0,0,0,0,0,0,-3.5982,-3.5984,-3.5996,-3.5981,-3.5981,-3.6002,-3.5965,-3.596,-3.5961,-3.5957,-3.5942,-3.5939,-3.592,-3.5936,-3.5938,-3.5958,-3.5913,-3.5977,-3.598,-3.5983,-3.6031,-3.6038,-3.6045,0,0,0,0,0,-3.5982,-3.6009,-3.5997,-3.5998,-3.5995,-3.6003,-3.6003,-3.5982,-3.5963,-3.5975,-3.5962,-3.5939,-3.5955,-3.5938,-3.5939,-3.596,-3.5976,-3.5979,-3.5983,-3.6028,-3.6037,-3.6044,0,0,0,0,0,0,-3.6025,-3.6007,-3.5993,-3.6016,-3.6012,-3.5996,-3.601,-3.5992,-3.5992,-3.5988,-3.5961,-3.5958,-3.5979,-3.597,-3.5952,-3.5991,-3.5962,-3.5966,-3.5996,-3.6004,-3.6011,-3.6013,-3.5913,0,0,0,0,0,-3.6037,-3.6046,-3.6029,-3.6052,-3.605,-3.6031,-3.6033,-3.6018,-3.6012,-3.601,-3.5998,-3.5993,-3.5997,-3.6,-3.6002,-3.6029,-3.6026,-3.6044,-3.6051,-3.6057,-3.6061,-3.6077,-3.6085,-3.5996,-3.5996,-3.5996,0,0,-3.6062,-3.6054,-3.606,-3.606,-3.6055,-3.6065,-3.603,-3.604,-3.6047,-3.6011,-3.6027,-3.6018,-3.601,-3.6033,-3.6042,-3.6026,-3.6085,-3.6061,-3.6066,-3.6067,-3.6081,-3.609,-3.6097,-3.5998,-3.5998,-3.5998,0,0,-3.6114,-3.6107,-3.6127,-3.6123,-3.6116,-3.6104,-3.6108,-3.6096,-3.6089,-3.6105,-3.6079,-3.6086,-3.6093,-3.6089,-3.6088,-3.614,-3.612,-3.6142,-3.6178,-3.6194,-3.6201,-3.6207,-3.6228,-3.6235,-3.6145,-3.6146,-3.6146,0,-3.6145,-3.616,-3.6138,-3.6152,-3.6153,-3.6123,-3.6142,-3.6139,-3.6133,-3.6135,-3.6118,-3.6128,-3.612,-3.6143,-3.6156,-3.6155,-3.616,-3.6144,-3.6202,-3.6208,-3.6213,-3.6233,-3.624,-3.6148,-3.6148,-3.6148,-3.6148,0,-3.62,-3.6211,-3.6227,-3.6225,-3.6227,-3.6244,-3.6225,-3.623,-3.6215,-3.6204,-3.6221,-3.6211,-3.6212,-3.6216,-3.62,-3.6237,-3.6228,-3.6207,-3.6177,-3.6225,-3.6243,-3.625,-3.6153,-3.6151,-3.6151,-3.615,0,0,-3.6277,-3.6265,-3.6271,-3.6271,-3.6262,-3.627,-3.6285,-3.6288,-3.6294,-3.6291,-3.6304,-3.6312,-3.6293,-3.6292,-3.6276,-3.629,-3.6335,-3.6267,-3.6267,-3.6282,-3.6377,-3.6394,-3.6403,-3.6321,-3.6322,-3.6323,-3.6378,0,-3.6327,-3.6355,-3.6337,-3.6367,-3.6377,-3.6349,-3.6363,-3.6359,-3.635,-3.6356,-3.6345,-3.6352,-3.6326,-3.6326,-3.6338,-3.6327,-3.6354,-3.6322,-3.6333,-3.6334,-3.6338,-3.6412,-3.6429,-3.6482,-3.6385,-3.6386,-3.6387,0,-3.6389,-3.6392,-3.6424,-3.6416,-3.6419,-3.6432,-3.6435,-3.6441,-3.6437,-3.6429,-3.643,-3.641,-3.6425,-3.6395,-3.6416,-3.6395,-3.6398,-3.6394,-3.6395,-3.6397,-3.6364,-3.6417,-3.6498,-3.6507,-3.6397,-3.6396,-3.6395,0,-3.6445,-3.6456,-3.6477,-3.6478,-3.6468,-3.6478,-3.6475,-3.6469,-3.6473,-3.6474,-3.6476,-3.6479,-3.6481,-3.6483,-3.6465,-3.6445,-3.6489,-3.6457,-3.6484,-3.6484,-3.6495,-3.6495,-3.658,-3.6494,-3.6494,-3.6494,-3.6494,0,-3.6504,-3.6525,-3.6503,-3.6516,-3.6539,-3.6518,-3.6541,-3.6534,-3.653,-3.6542,-3.6516,-3.6527,-3.6502,-3.6511,-3.6497,-3.6517,-3.6517,-3.6512,-3.6508,-3.6515,-3.6516,-3.6518,-3.6515,-3.6496,-3.6496,-3.6495,-3.6495,0,-3.657,-3.6556,-3.6578,-3.6568,-3.6566,-3.6584,-3.6575,-3.6587,-3.6577,-3.6591,-3.6594,-3.6577,-3.6586,-3.6568,-3.6574,-3.6565,-3.6594,-3.6584,-3.6597,-3.6594,-3.6622,-3.6621,-3.6713,-3.6724,-3.663,-3.6631,-3.6632,0,-3.6609,-3.6625,-3.6618,-3.6625,-3.6624,-3.6634,-3.6639,-3.6619,-3.6624,-3.6622,-3.6634,-3.6642,-3.6647,-3.6662,-3.665,-3.6655,-3.6646,-3.6678,-3.6646,-3.6654,-3.6649,-3.6649,-3.6651,-3.6684,-3.6686,-3.6686,-3.6687,0,-3.6681,-3.6674,-3.6682,-3.6689,-3.6695,-3.6698,-3.67,-3.6707,-3.6686,-3.6693,-3.6703,-3.6707,-3.6715,-3.6723,-3.6726,-3.6721,-3.6701,-3.6697,-3.6704,-3.6712,-3.672,-3.6718,-3.6616,-3.6695,-3.6695,-3.6694,-3.6693,-3.6693,-3.6736,-3.675,-3.6749,-3.6759,-3.6759,-3.6761,-3.6773,-3.6765,-3.6773,-3.6779,-3.6767,-3.678,-3.6777,-3.6779,-3.6777,-3.6787,-3.6773,-3.6782,-3.6784,-3.6788,-3.6793,-3.6717,-3.6787,-3.6787,-3.6786,-3.6786,-3.6786,0,-3.6809,-3.6807,-3.6817,-3.6821,-3.683,-3.6812,-3.6813,-3.6821,-3.6834,-3.6833,-3.6839,-3.6852,-3.686,-3.685,-3.6856,-3.6867,-3.6858,-3.6869,-3.6869,-3.6869,-3.6804,-3.6799,-3.6876,-3.6876,-3.6876,-3.6876,-3.6876,-3.6876,-3.6848,-3.6871,-3.6864,-3.6888,-3.6885,-3.69,-3.6903,-3.6905,-3.6905,-3.6921,-3.6929,-3.6922,-3.6918,-3.6924,-3.6931,-3.6928,-3.6932,-3.6947,-3.6941,-3.6881,-3.6873,-3.6864,-3.6859,-3.6948,-3.6948,-3.7004,-3.7005,-3.7005]}]]